INTELSAT 33E DEB, 64403

Orbit data source: Space-Track

INTELSAT 33E DEB, 64403 is space debris in GEO originally from a launch on Wed, 24 Aug 2016 UTC launched from the French Guiana (FRGUI). Debris objects in space refer to the collection of defunct objects orbiting the Earth. Examples of debris include non-operational satellites, rocket bodies, and fragments generated from explosions, collisions, or faulty payload assembly.

Loading next visibility...
Identifier
64403, 2016-053AH
Orbit
GEO
Country
Flag of USUS / ITSO
Related business
Manufacturer
Boeing/ES
Mission
Spacecraft
Bus & Motor
Unknown
Mass
Unknown
Launch date (UTC)
2016-08-24 (10 years ago)
Launch vehicle
Unknown
Launch site
French Guiana (FRGUI)
Object type
Payload
Rocket body
Debris
Shape & HBR
Unknown shape, 1.1 m
Radar Cross Section
RCS unknown

Expand to show TLE details & history
Last TLE update: 15 hours ago

TLE from 15 hours ago
0 INTELSAT 33E DEB
1 64403U 16053AH  26120.90428532 -.00000059  00000-0  00000-0 0  9991
2 64403   1.3082  65.1111 0066351 341.1140  18.3906  1.00727221  5489
Epoch: 2026-04-30T21:42Z
TLE epoch observation values (Epoch: 2026-04-30T21:42:10.251Z)
Latitude
-0.00001°
Longitude
-119.52909°
Altitude
35,393.164 km
Speed
3.099 km/s
True Right ascension
04h 19m 25s
True Declination
0° 00' 00"
Sunlit
Object was in daylight at epoch
Visualization orbit readout
Latitude
Unknown
Longitude
Unknown
Altitude
Unknown
Speed
Unknown
Apparent Right ascension
Unknown
Apparent Declination
Unknown
Sunlit
N/A
Visualization observer readout
Local Sidereal Time
20:32:37
Azimuth
Unknown
Elevation
Unknown
Doppler factor
Unknown
Orbital elements
Apogee altitude
35,939.404 km
Perigee altitude
35,381.543 km
Semi-major axis
42,038.611 km
Eccentricity
0.00664
Inclination
1.3082°
RAAN
65.1111°
Arg. of periapsis
341.114°
True anomaly
18.63238°
Mean anomaly
18.3906°
Eccentric anomaly
18.5113°
Mean motion
0.25181 °/min
Orbital period
1,429.66 mins
BSTAR
0
Loading maneuver chart data...
Computing Atmospheric mass density...
Loading historical data...
Loading historical data...
Loading historical data...
Loading historical data...
Loading historical data...
Loading historical data...
Loading historical data...

Documentation

Showing up to 5 results
|